| time (UTC) | temp F | wind direction | speed knots | gust knots | rain 1hr in | rain 24hr in | rain mn in | humidity % | barometer mb |
| 20260905183021 | 67 | 0.0 | 0.0 | 0.00 | 0.00 | 0.00 | 47 | 1015.5 | |
| 20260905181918 | 67 | 0.0 | 0.0 | 0.00 | 0.00 | 0.00 | 48 | 1015.5 | |
| 20260905181425 | 68 | 0.0 | 0.0 | 0.00 | 0.00 | 0.00 | 47 | 1015.5 | |
| 20260905180926 | 67 | 0.0 | 0.0 | 0.00 | 0.00 | 0.00 | 47 | 1015.4 | |
| 20260905175919 | 67 | 0.0 | 0.0 | 0.00 | 0.00 | 0.00 | 47 | 1015.4 | |
| 20260905174918 | 67 | 0.0 | 0.0 | 0.00 | 0.00 | 0.00 | 48 | 1015.1 | |
| 20260905173921 | 67 | 0.0 | 0.0 | 0.00 | 0.00 | 0.00 | 49 | 1015.1 | |
| 20260905173423 | 67 | 0.0 | 0.0 | 0.00 | 0.00 | 0.00 | 49 | 1015.1 | |
| 20260905172923 | 68 | 0.0 | 0.0 | 0.00 | 0.00 | 0.00 | 49 | 1015.0 | |
| 20260905172425 | 68 | 0.0 | 0.0 | 0.00 | 0.00 | 0.00 | 48 | 1015.0 | |
| 20260905171319 | 68 | 0.0 | 0.0 | 0.00 | 0.00 | 0.00 | 48 | 1014.8 | |
| 20260905170018 | 68 | 0.0 | 0.0 | 0.00 | 0.00 | 0.00 | 49 | 1014.8 | |
| 20260905165026 | 69 | 0.0 | 0.0 | 0.00 | 0.00 | 0.00 | 49 | 1014.6 | |
| 20260905164022 | 69 | 0.0 | 0.0 | 0.00 | 0.00 | 0.00 | 50 | 1014.6 | |
| 20260905163118 | 70 | 0.0 | 0.0 | 0.00 | 0.00 | 0.00 | 50 | 1014.5 | |
| 20260905162019 | 70 | 0.0 | 0.0 | 0.00 | 0.00 | 0.00 | 50 | 1014.5 | |
| 20260905161521 | 70 | 0.0 | 0.0 | 0.00 | 0.00 | 0.00 | 49 | 1014.5 | |
| 20260905160320 | 70 | 0.0 | 0.0 | 0.00 | 0.00 | 0.00 | 50 | 1014.5 | |
| 20260905155022 | 70 | 0.0 | 0.0 | 0.00 | 0.00 | 0.00 | 49 | 1014.6 | |
| 20260905154522 | 70 | 0.0 | 0.0 | 0.00 | 0.00 | 0.00 | 49 | 1014.6 | |
| 20260905154026 | 70 | 0.0 | 0.0 | 0.00 | 0.00 | 0.00 | 49 | 1014.6 | |
| 20260905153525 | 70 | 0.0 | 0.0 | 0.00 | 0.00 | 0.00 | 49 | 1014.6 | |
| 20260905152522 | 70 | 0.0 | 0.0 | 0.00 | 0.00 | 0.00 | 49 | 1014.6 | |
| 20260905152025 | 70 | 0.0 | 0.0 | 0.00 | 0.00 | 0.00 | 48 | 1014.6 | |
| 20260905151526 | 70 | 0.0 | 0.0 | 0.00 | 0.00 | 0.00 | 49 | 1014.6 | |
| 20260905151026 | 70 | 0.0 | 0.0 | 0.00 | 0.00 | 0.00 | 48 | 1014.5 | |
| 20260905145920 | 70 | 0.0 | 0.0 | 0.00 | 0.00 | 0.00 | 48 | 1014.5 | |
| 20260905145422 | 70 | 0.0 | 0.0 | 0.00 | 0.00 | 0.00 | 49 | 1014.5 | |
| 20260905144921 | 70 | 0.0 | 0.0 | 0.00 | 0.00 | 0.00 | 48 | 1014.5 | |
| 20260905144218 | 71 | 0.0 | 0.0 | 0.00 | 0.00 | 0.00 | 48 | 1014.6 | |
| 20260905143217 | 71 | 0.0 | 0.0 | 0.00 | 0.00 | 0.00 | 48 | 1014.6 | |
| 20260905142725 | 71 | 0.0 | 0.0 | 0.00 | 0.00 | 0.00 | 48 | 1014.6 | |
| 20260905142224 | 71 | 0.0 | 0.0 | 0.00 | 0.00 | 0.00 | 48 | 1014.6 | |
| 20260905141724 | 71 | 0.0 | 0.0 | 0.00 | 0.00 | 0.00 | 48 | 1014.6 | |
| 20260905140717 | 71 | 0.0 | 0.0 | 0.00 | 0.00 | 0.00 | 48 | 1014.9 | |
| 20260905140226 | 71 | 0.0 | 0.0 | 0.00 | 0.00 | 0.00 | 48 | 1014.9 | |
| 20260905134921 | 72 | 0.0 | 0.0 | 0.00 | 0.00 | 0.00 | 48 | 1014.9 | |
| 20260905134426 | 72 | 0.0 | 0.0 | 0.00 | 0.00 | 0.00 | 49 | 1014.9 | |
| 20260905133420 | 72 | 0.0 | 0.0 | 0.00 | 0.00 | 0.00 | 48 | 1014.8 | |
| 20260905132921 | 72 | 0.0 | 0.0 | 0.00 | 0.00 | 0.00 | 49 | 1014.7 | |
| 20260905131822 | 72 | 0.0 | 0.0 | 0.00 | 0.00 | 0.00 | 48 | 1014.7 | |
| 20260905130725 | 72 | 0.0 | 0.0 | 0.00 | 0.00 | 0.00 | 49 | 1014.7 | |
| 20260905125722 | 72 | 0.0 | 0.0 | 0.00 | 0.00 | 0.00 | 49 | 1014.7 | |
| 20260905125227 | 72 | 0.0 | 0.0 | 0.00 | 0.00 | 0.00 | 49 | 1014.7 | |
| 20260905123919 | 72 | 0.0 | 0.0 | 0.00 | 0.00 | 0.00 | 48 | 1014.6 | |
| 20260905123423 | 72 | 0.0 | 0.0 | 0.00 | 0.00 | 0.00 | 48 | 1014.7 | |
| 20260905122927 | 73 | 0.0 | 0.0 | 0.00 | 0.00 | 0.00 | 48 | 1014.8 | |
| 20260905122426 | 73 | 0.0 | 0.0 | 0.00 | 0.00 | 0.00 | 48 | 1014.8 | |
| 20260905121520 | 73 | 0.0 | 0.0 | 0.00 | 0.00 | 0.00 | 47 | 1014.8 | |
| 20260905121022 | 73 | 0.0 | 0.0 | 0.00 | 0.00 | 0.00 | 47 | 1014.7 | |
| 20260905120525 | 73 | 0.0 | 0.0 | 0.00 | 0.00 | 0.00 | 47 | 1014.7 | |
| 20260905120024 | 73 | 0.0 | 0.0 | 0.00 | 0.00 | 0.00 | 47 | 1014.7 | |
| 20260905115021 | 73 | 0.0 | 0.0 | 0.00 | 0.00 | 0.00 | 45 | 1015.1 | |
| 20260905113918 | 74 | 0.0 | 0.0 | 0.00 | 0.00 | 0.00 | 43 | 1015.1 | |
| 20260905112921 | 74 | 0.0 | 0.0 | 0.00 | 0.00 | 0.00 | 34 | 1015.3 | |
| 20260905112426 | 74 | 0.0 | 0.0 | 0.00 | 0.00 | 0.00 | 25 | 1015.3 | |
| 20260905111717 | 75 | 0.0 | 0.0 | 0.00 | 0.00 | 0.00 | 4 | 1015.2 | |
| 20260905110720 | 74 | 0.0 | 0.0 | 0.00 | 0.00 | 0.00 | 99 | 1015.5 | |
| 20260905110224 | 75 | 0.0 | 0.0 | 0.00 | 0.00 | 0.00 | 99 | 1015.5 | |
| 20260905104921 | 76 | 0.0 | 0.0 | 0.00 | 0.00 | 0.00 | 99 | 1015.5 | |
| 20260905104217 | 75 | 0.0 | 0.0 | 0.00 | 0.00 | 0.00 | 99 | 1015.5 | |
| 20260905103221 | 75 | 0.0 | 0.0 | 0.00 | 0.00 | 0.00 | 99 | 1015.7 | |
| 20260905102320 | 75 | 0.0 | 0.0 | 0.00 | 0.00 | 0.00 | 99 | 1015.7 | |
| 20260905101824 | 74 | 0.0 | 0.0 | 0.00 | 0.00 | 0.00 | 99 | 1015.7 | |
| 20260905101023 | 74 | 0.0 | 0.0 | 0.00 | 0.00 | 0.00 | 99 | 1015.8 | |
| 20260905100524 | 74 | 0.0 | 0.0 | 0.00 | 0.00 | 0.00 | 99 | 1015.8 | |
| 20260905100017 | 74 | 0.0 | 0.0 | 0.00 | 0.00 | 0.00 | 99 | 1015.8 | |
| 20260905095317 | 73 | 0.0 | 0.0 | 0.00 | 0.00 | 0.00 | 99 | 1016.1 | |
| 20260905094418 | 72 | 0.0 | 0.0 | 0.00 | 0.00 | 0.00 | 99 | 1016.1 | |
| 20260905093923 | 71 | 0.0 | 0.0 | 0.00 | 0.00 | 0.00 | 99 | 1016.1 | |
| 20260905093424 | 70 | 0.0 | 0.0 | 0.00 | 0.00 | 0.00 | 99 | 1016.1 | |
| 20260905092926 | 69 | 0.0 | 0.0 | 0.00 | 0.00 | 0.00 | 99 | 1016.4 | |
| 20260905092426 | 69 | 0.0 | 0.0 | 0.00 | 0.00 | 0.00 | 99 | 1016.4 | |
| 20260905091418 | 68 | 0.0 | 0.0 | 0.00 | 0.00 | 0.00 | 99 | 1016.3 | |
| 20260905090921 | 67 | 0.0 | 0.0 | 0.00 | 0.00 | 0.00 | 99 | 1016.2 | |
| 20260905090424 | 67 | 0.0 | 0.0 | 0.00 | 0.00 | 0.00 | 99 | 1016.2 | |
| 20260905085116 | 66 | 0.0 | 0.0 | 0.00 | 0.00 | 0.00 | 99 | 1016.1 | |
| 20260905084625 | 66 | 0.0 | 0.0 | 0.00 | 0.00 | 0.00 | 99 | 1016.1 | |
| 20260905084125 | 66 | 0.0 | 0.0 | 0.00 | 0.00 | 0.00 | 99 | 1016.1 | |
| 20260905083220 | 67 | 0.0 | 0.0 | 0.00 | 0.00 | 0.00 | 99 | 1016.3 | |
| 20260905082726 | 67 | 0.0 | 0.0 | 0.00 | 0.00 | 0.00 | 99 | 1016.3 | |
| 20260905082222 | 66 | 0.0 | 0.0 | 0.00 | 0.00 | 0.00 | 99 | 1016.3 | |
| 20260905081317 | 66 | 0.0 | 0.0 | 0.00 | 0.00 | 0.00 | 99 | 1015.9 | |
| 20260905080622 | 65 | 0.0 | 0.0 | 0.00 | 0.00 | 0.00 | 99 | 1015.8 | |
| 20260905075917 | 65 | 0.0 | 0.0 | 0.00 | 0.00 | 0.00 | 99 | 1015.9 | |
| 20260905075424 | 64 | 0.0 | 0.0 | 0.00 | 0.00 | 0.00 | 99 | 1015.7 | |
| 20260905074926 | 63 | 0.0 | 0.0 | 0.00 | 0.00 | 0.00 | 99 | 1015.0 | |
| 20260905073820 | 63 | 0.0 | 0.0 | 0.00 | 0.00 | 0.00 | 99 | 1015.0 | |
| 20260905072717 | 62 | 0.0 | 0.0 | 0.00 | 0.00 | 0.00 | 99 | 1014.9 | |
| 20260905071421 | 62 | 0.0 | 0.0 | 0.00 | 0.00 | 0.00 | 99 | 1014.8 | |
| 20260905070517 | 61 | 0.0 | 0.0 | 0.00 | 0.00 | 0.00 | 99 | 1014.8 | |
| 20260905065417 | 61 | 0.0 | 0.0 | 0.00 | 0.00 | 0.00 | 99 | 1014.7 | |
| 20260905064421 | 61 | 0.0 | 0.0 | 0.00 | 0.00 | 0.00 | 99 | 1014.6 | |
| 20260905063321 | 60 | 0.0 | 0.0 | 0.00 | 0.00 | 0.00 | 99 | 1014.9 | |
| 20260905062219 | 61 | 0.0 | 0.0 | 0.00 | 0.00 | 0.00 | 99 | 1014.9 | |
| 20260905061723 | 61 | 0.0 | 0.0 | 0.00 | 0.00 | 0.00 | 99 | 1014.9 | |
| 20260905061225 | 62 | 0.0 | 0.0 | 0.00 | 0.00 | 0.00 | 99 | 1014.9 | |
| 20260905060724 | 61 | 0.0 | 0.0 | 0.00 | 0.00 | 0.00 | 99 | 1014.9 | |
| 20260905055719 | 62 | 0.0 | 0.0 | 0.00 | 0.00 | 0.00 | 99 | 1014.9 | |
| 20260905054721 | 62 | 0.0 | 0.0 | 0.00 | 0.00 | 0.00 | 99 | 1014.3 | |
| 20260905054229 | 63 | 0.0 | 0.0 | 0.00 | 0.00 | 0.00 | 99 | 1014.3 | |
| 20260905053323 | 63 | 0.0 | 0.0 | 0.00 | 0.00 | 0.00 | 99 | 1014.0 | |
| 20260905052417 | 63 | 0.0 | 0.0 | 0.00 | 0.00 | 0.00 | 99 | 1014.0 | |
| 20260905051925 | 63 | 0.0 | 0.0 | 0.00 | 0.00 | 0.00 | 99 | 1014.0 | |
| 20260905051426 | 63 | 0.0 | 0.0 | 0.00 | 0.00 | 0.00 | 99 | 1014.0 | |
| 20260905050524 | 63 | 0.0 | 0.0 | 0.00 | 0.00 | 0.00 | 99 | 1013.9 | |
| 20260905050025 | 63 | 0.0 | 0.0 | 0.00 | 0.00 | 0.00 | 99 | 1013.9 | |
| 20260905045316 | 63 | 0.0 | 0.0 | 0.00 | 0.00 | 0.00 | 99 | 1013.4 | |
| 20260905044318 | 63 | 0.0 | 0.0 | 0.00 | 0.00 | 0.00 | 99 | 1013.4 | |
| 20260905043418 | 62 | 0.0 | 0.0 | 0.00 | 0.00 | 0.00 | 99 | 1013.4 | |
| 20260905042316 | 63 | 0.0 | 0.0 | 0.00 | 0.00 | 0.00 | 99 | 1013.1 | |
| 20260905041526 | 63 | 0.0 | 0.0 | 0.00 | 0.00 | 0.00 | 99 | 1013.1 | |
| 20260905041026 | 65 | 0.0 | 0.0 | 0.00 | 0.00 | 0.00 | 99 | 1013.1 | |
| 20260905040526 | 65 | 0.0 | 0.0 | 0.00 | 0.00 | 0.00 | 99 | 1013.1 | |
| 20260905040016 | 65 | 0.0 | 0.0 | 0.00 | 0.00 | 0.00 | 83 | 1013.0 | |
| 20260905035020 | 66 | 0.0 | 0.0 | 0.00 | 0.00 | 0.00 | 6 | 1011.9 | |
| 20260905034021 | 66 | 0.0 | 0.0 | 0.00 | 0.00 | 0.00 | 12 | 1011.9 | |
| 20260905033316 | 66 | 0.0 | 0.0 | 0.00 | 0.00 | 0.00 | 16 | 1012.1 | |
| 20260905032319 | 66 | 0.0 | 0.0 | 0.00 | 0.00 | 0.00 | 19 | 1012.1 | |
| 20260905031219 | 67 | 0.0 | 0.0 | 0.00 | 0.00 | 0.00 | 36 | 1011.6 | |
| 20260905025918 | 66 | 0.0 | 0.0 | 0.00 | 0.00 | 0.00 | 30 | 1011.5 | |
| 20260905025421 | 66 | 0.0 | 0.0 | 0.00 | 0.00 | 0.00 | 26 | 1011.4 | |
| 20260905024321 | 66 | 0.0 | 0.0 | 0.00 | 0.00 | 0.00 | 29 | 1011.1 | |
| 20260905023220 | 67 | 0.0 | 0.0 | 0.00 | 0.00 | 0.00 | 30 | 1011.5 | |
| 20260905021922 | 67 | 0.0 | 0.0 | 0.00 | 0.00 | 0.00 | 35 | 1011.5 | |
| 20260905021423 | 67 | 0.0 | 0.0 | 0.00 | 0.00 | 0.00 | 37 | 1011.5 | |
| 20260905020924 | 67 | 0.0 | 0.0 | 0.00 | 0.00 | 0.00 | 37 | 1010.8 | |
| 20260905020216 | 68 | 0.0 | 0.0 | 0.00 | 0.00 | 0.00 | 36 | 1010.9 | |
| 20260905015225 | 68 | 0.0 | 0.0 | 0.00 | 0.00 | 0.00 | 34 | 1011.3 | |
| 20260905014226 | 68 | 0.0 | 0.0 | 0.00 | 0.00 | 0.00 | 31 | 1011.3 | |
| 20260905013222 | 69 | 0.0 | 0.0 | 0.00 | 0.00 | 0.00 | 27 | 1011.0 | |
| 20260905011916 | 69 | 0.0 | 0.0 | 0.00 | 0.00 | 0.00 | 15 | 1011.0 | |
| 20260905010918 | 69 | 0.0 | 0.0 | 0.00 | 0.00 | 0.00 | 12 | 1010.2 | |
| 20260905010421 | 69 | 0.0 | 0.0 | 0.00 | 0.00 | 0.00 | 12 | 1010.2 | |
| 20260905005925 | 69 | 0.0 | 0.0 | 0.00 | 0.00 | 0.00 | 9 | 1010.2 | |
| 20260905005424 | 69 | 0.0 | 0.0 | 0.00 | 0.00 | 0.00 | 3 | 1009.9 | |
| 20260905004924 | 66 | 0.0 | 0.0 | 0.00 | 0.00 | 0.00 | 99 | 1009.1 | |
| 20260905003918 | 65 | 0.0 | 0.0 | 0.00 | 0.00 | 0.00 | 99 | 1009.1 | |
| 20260905002921 | 65 | 0.0 | 0.0 | 0.00 | 0.00 | 0.00 | 99 | 1008.6 | |
| 20260905002425 | 65 | 0.0 | 0.0 | 0.00 | 0.00 | 0.00 | 99 | 1008.6 | |
| 20260905001923 | 65 | 0.0 | 0.0 | 0.00 | 0.00 | 0.00 | 99 | 1008.6 | |
| 20260905001216 | 65 | 0.0 | 0.0 | 0.00 | 0.00 | 0.00 | 99 | 1008.3 | |
| 20260904235920 | 65 | 0.0 | 0.0 | 0.00 | 0.00 | 0.00 | 99 | 1008.3 | |
| 20260904234825 | 66 | 0.0 | 0.0 | 0.00 | 0.00 | 0.00 | 99 | 1008.5 | |
| 20260904234323 | 66 | 0.0 | 0.0 | 0.00 | 0.00 | 0.00 | 99 | 1008.5 | |
| 20260904233220 | 66 | 0.0 | 0.0 | 0.00 | 0.00 | 0.00 | 99 | 1008.4 | |
| 20260904232724 | 66 | 0.0 | 0.0 | 0.00 | 0.00 | 0.00 | 99 | 1008.4 | |
| 20260904232016 | 66 | 0.0 | 0.0 | 0.00 | 0.00 | 0.00 | 99 | 1008.3 | |
| 20260904231019 | 66 | 0.0 | 0.0 | 0.00 | 0.00 | 0.00 | 99 | 1008.5 | |
| 20260904230524 | 66 | 0.0 | 0.0 | 0.00 | 0.00 | 0.00 | 99 | 1008.5 | |
| 20260904225416 | 66 | 0.0 | 0.0 | 0.00 | 0.00 | 0.00 | 99 | 1008.5 | |
| 20260904224322 | 66 | 0.0 | 0.0 | 0.00 | 0.00 | 0.00 | 99 | 1008.4 | |
| 20260904223824 | 66 | 0.0 | 0.0 | 0.00 | 0.00 | 0.00 | 99 | 1008.4 | |
| 20260904222521 | 66 | 0.0 | 0.0 | 0.00 | 0.00 | 0.00 | 99 | 1008.3 | |
| 20260904222022 | 66 | 0.0 | 0.0 | 0.00 | 0.00 | 0.00 | 99 | 1008.4 | |
| 20260904220722 | 67 | 0.0 | 0.0 | 0.00 | 0.00 | 0.00 | 99 | 1008.3 | |
| 20260904215921 | 67 | 0.0 | 0.0 | 0.00 | 0.00 | 0.00 | 99 | 1008.3 | |
| 20260904214822 | 67 | 0.0 | 0.0 | 0.00 | 0.00 | 0.00 | 99 | 1008.3 | |
| 20260904213916 | 67 | 0.0 | 0.0 | 0.00 | 0.00 | 0.00 | 99 | 1008.2 | |
| 20260904212918 | 67 | 0.0 | 0.0 | 0.00 | 0.00 | 0.00 | 99 | 1008.2 | |
| 20260904211922 | 66 | 0.0 | 0.0 | 0.00 | 0.00 | 0.00 | 99 | 1008.1 | |
| 20260904211019 | 67 | 0.0 | 0.0 | 0.00 | 0.00 | 0.00 | 99 | 1008.4 | |
| 20260904210526 | 67 | 0.0 | 0.0 | 0.00 | 0.00 | 0.00 | 99 | 1008.4 | |
| 20260904210022 | 67 | 0.0 | 0.0 | 0.00 | 0.00 | 0.00 | 99 | 1008.4 | |
| 20260904205525 | 67 | 0.0 | 0.0 | 0.00 | 0.00 | 0.00 | 99 | 1008.3 | |
| 20260904204526 | 67 | 0.0 | 0.0 | 0.00 | 0.00 | 0.00 | 99 | 1008.2 | |
| 20260904203516 | 68 | 0.0 | 0.0 | 0.00 | 0.00 | 0.00 | 99 | 1008.2 | |
| 20260904202519 | 68 | 0.0 | 0.0 | 0.00 | 0.00 | 0.00 | 99 | 1008.6 | |
| 20260904201618 | 68 | 0.0 | 0.0 | 0.00 | 0.00 | 0.00 | 99 | 1008.6 | |
| 20260904201122 | 68 | 0.0 | 0.0 | 0.00 | 0.00 | 0.00 | 100 | 1008.4 | |
| 20260904200416 | 68 | 0.0 | 0.0 | 0.00 | 0.00 | 0.00 | 99 | 1008.6 | |
| 20260904195421 | 69 | 0.0 | 0.0 | 0.00 | 0.00 | 0.00 | 1 | 1008.4 | |
| 20260904194925 | 69 | 0.0 | 0.0 | 0.00 | 0.00 | 0.00 | 5 | 1008.4 | |
| 20260904193821 | 69 | 0.0 | 0.0 | 0.00 | 0.00 | 0.00 | 10 | 1008.3 | |
| 20260904193324 | 70 | 0.0 | 0.0 | 0.00 | 0.00 | 0.00 | 10 | 1008.6 | |
| 20260904192221 | 70 | 0.0 | 0.0 | 0.00 | 0.00 | 0.00 | 15 | 1008.6 | |
| 20260904191221 | 70 | 0.0 | 0.0 | 0.00 | 0.00 | 0.00 | 17 | 1008.3 | |
| 20260904190516 | 71 | 0.0 | 0.0 | 0.00 | 0.00 | 0.00 | 21 | 1008.3 | |
| 20260904185820 | 71 | 0.0 | 0.0 | 0.00 | 0.00 | 0.00 | 23 | 1008.3 | |
| 20260904184721 | 71 | 0.0 | 0.0 | 0.00 | 0.00 | 0.00 | 26 | 1008.5 |